ASTROBIOCUBESAT (53107 NORAD) Tracking and Keplerian Element Data

This shows tracking and keplerian element data for the satellite.

Feedback or suggestion? Click here.




ElementValue
Catalog53107
NameASTROBIOCUBESAT
Epoch Orbit452
Epoch Day266.48607895
Epoch Year2022
RAAN52.4263
Inclination70.1533
Eccentricity0.0013185
Argument of Perigee234.4876
Mean Anonmoly125.4505
Mean Motion6.42111079
Decay Rate-3E-08
L11 53107U 22080C 22266.48607895 -.00000003 00000+0 00000+0 0 9995
L22 53107 70.1533 52.4263 0013185 234.4876 125.4505 6.42111079 4525

Live tracking and technical data element details for ASTROBIOCUBESAT (NORAD 53107). ASTROBIOCUBESAT can be tracked NOW for your location showing map with azimuth and elevation plus other details from your city location.

Track the satellite on the map from your city or location and see movement details for azimuth, elevation, latitude, longitude, range, height, and movement on the map or in text.







IsCatalogInMostPopularTable: catalog: 53107, numindb: 7
Update: records affected: 1



GetName: 53107 ASTROBIOCUBESAT

Hit Count: updated at: Thu, 29 Sep 2022 10:44:10 GMT